User: anonymous   Login
Location: Okie-Tex Star Party
(36.8978°N, 102.9520°W)
Time: 05:08:11
(UTC-05:00)
Language:

Hamsat - Orbit

View from above orbital plane
View from above orbital plane
View from above satellite
View from above satellite

Ground track
Ground track

The orbit data is extracted from the following two-line orbital elements,

1 28650U 05017B   16271.92677381  .00000694  00000-0  80266-4 0  9999
2 28650  97.6187 249.7348 0022098 280.0042  79.8681 14.88417758617157
Epoch (UTC): 27 September 2016 22:14:33
Eccentricity: 0.0022098
inclination: 97.6187°
perigee height: 587 km
apogee height: 618 km
right ascension of ascending node: 249.7348°
argument of perigee: 280.0042°
revolutions per day: 14.88417758
mean anomaly at epoch: 79.8681°
orbit number at epoch: 61715

The dashed part of the orbit path shows where the satellite is in the earth's shadow,  

DLR